{"data":{"norad_id":65181,"epoch":"2026-09-20T14:29:36.906432Z","epoch_age_seconds":111945,"freshness":"FRESH","line1":"1 65181U 25175H   26263.60389938  .00011030  00000+0  34326-3 0  9991","line2":"2 65181  97.2843 132.6536 0002690 103.2159 256.9384 15.33462450 62121","mean_motion":15.3346245,"eccentricity":0.000269,"inclination_deg":97.2843,"raan_deg":132.6536,"arg_perigee_deg":103.2159,"mean_anomaly_deg":256.9384,"bstar":0.00034326,"rev_number":6212,"period_min":93.90513605338,"perigee_km":463.65032004672,"apogee_km":467.33219204847,"semimajor_km":6843.6282560476,"source":"CELESTRAK","updated_at":"2026-09-21T09:00:35.528741Z"}}